• Em Portugal
  • Lista de países
  • Para 7 dias
  • Temperatura da água
  • Mapas de satélite
  • Mapa do tempo
  • Widgets de tempo
  • user-avatar
    Iniciar Sessão

    Previsão horária em Ganja

    Hoje, 14 Agosto, Terça-feira

    Tempo Temperatura Precipitação Vento Pressão Humidade
    00:00 +25°C° 0 mm 2 m/s 724 mmHg 59%
    01:00 +25°C° 0 mm 2 m/s 724 mmHg 61%
    02:00 +24°C° 0 mm 2 m/s 724 mmHg 63%
    03:00 +24°C° 0 mm 2 m/s 724 mmHg 66%
    04:00 +24°C° 0 mm 2 m/s 724 mmHg 66%
    05:00 +24°C° 0 mm 2 m/s 724 mmHg 66%
    06:00 +24°C° 0 mm 2 m/s 725 mmHg 66%
    07:00 +24°C° 0 mm 3 m/s 725 mmHg 64%
    08:00 +25°C° 0 mm 3 m/s 725 mmHg 62%
    09:00 +25°C° 0 mm 4 m/s 725 mmHg 61%
    10:00 +26°C° 0 mm 4 m/s 725 mmHg 57%
    11:00 +27°C° 0 mm 4 m/s 725 mmHg 54%
    12:00 +28°C° 0 mm 5 m/s 724 mmHg 50%
    13:00 +29°C° 0 mm 5 m/s 724 mmHg 47%
    14:00 +29°C° 0 mm 5 m/s 724 mmHg 43%
    15:00 +30°C° 0 mm 5 m/s 724 mmHg 40%
    16:00 +30°C° 0 mm 5 m/s 724 mmHg 42%
    17:00 +29°C° 0 mm 5 m/s 724 mmHg 44%
    18:00 +29°C° 0 mm 4 m/s 724 mmHg 46%
    19:00 +28°C° 0 mm 4 m/s 725 mmHg 49%
    20:00 +27°C° 0 mm 3 m/s 725 mmHg 52%
    21:00 +26°C° 0 mm 3 m/s 725 mmHg 56%
    22:00 +25°C° 0 mm 3 m/s 725 mmHg 57%
    23:00 +25°C° 0 mm 3 m/s 725 mmHg 58%

    Amanhã, 15 Agosto, Quarta-feira

    Tempo Temperatura Precipitação Vento Pressão Humidade
    00:00 +25°C° 0 mm 3 m/s 726 mmHg 60%
    01:00 +24°C° 0 mm 2 m/s 725 mmHg 61%
    02:00 +24°C° 0 mm 2 m/s 725 mmHg 63%
    03:00 +23°C° 0 mm 2 m/s 725 mmHg 64%
    04:00 +23°C° 0 mm 2 m/s 725 mmHg 64%
    05:00 +23°C° 0 mm 2 m/s 725 mmHg 64%
    06:00 +23°C° 0 mm 1 m/s 725 mmHg 64%
    07:00 +25°C° 0 mm 2 m/s 725 mmHg 59%
    08:00 +26°C° 0 mm 2 m/s 725 mmHg 55%
    09:00 +27°C° 0 mm 3 m/s 726 mmHg 50%
    10:00 +28°C° 0,1 mm 3 m/s 725 mmHg 47%
    11:00 +29°C° 0,1 mm 3 m/s 725 mmHg 44%
    12:00 +30°C° 0,1 mm 4 m/s 725 mmHg 41%
    13:00 +32°C° 0 mm 4 m/s 725 mmHg 39%
    14:00 +33°C° 0 mm 4 m/s 725 mmHg 37%
    15:00 +33°C° 0 mm 5 m/s 724 mmHg 34%
    16:00 +33°C° 0 mm 5 m/s 724 mmHg 36%
    17:00 +32°C° 0 mm 4 m/s 724 mmHg 38%
    18:00 +32°C° 0 mm 4 m/s 725 mmHg 39%
    19:00 +29°C° 0 mm 4 m/s 725 mmHg 43%
    20:00 +28°C° 0 mm 4 m/s 725 mmHg 46%
    21:00 +26°C° 0 mm 3 m/s 726 mmHg 49%
    22:00 +26°C° 0 mm 3 m/s 726 mmHg 51%
    23:00 +25°C° 0 mm 3 m/s 726 mmHg 53%

    Depois de amanhã, 16 Agosto, Quinta-feira

    Tempo Temperatura Precipitação Vento Pressão Humidade
    00:00 +25°C° 0 mm 3 m/s 726 mmHg 55%
    01:00 +24°C° 0 mm 3 m/s 726 mmHg 56%
    02:00 +24°C° 0 mm 2 m/s 726 mmHg 58%
    03:00 +23°C° 0 mm 2 m/s 726 mmHg 60%
    04:00 +23°C° 0 mm 2 m/s 726 mmHg 60%
    05:00 +23°C° 0 mm 1 m/s 726 mmHg 60%
    06:00 +23°C° 0 mm 1 m/s 726 mmHg 60%
    07:00 +25°C° 0 mm 1 m/s 726 mmHg 55%
    08:00 +26°C° 0 mm 1 m/s 726 mmHg 50%
    09:00 +28°C° 0 mm 2 m/s 726 mmHg 45%
    10:00 +29°C° 0 mm 2 m/s 725 mmHg 42%
    11:00 +30°C° 0 mm 2 m/s 725 mmHg 40%
    12:00 +33°C° 0 mm 3 m/s 725 mmHg 37%
    13:00 +33°C° 0 mm 3 m/s 724 mmHg 36%
    14:00 +34°C° 0 mm 3 m/s 724 mmHg 35%
    15:00 +35°C° 0 mm 3 m/s 723 mmHg 34%
    16:00 +34°C° 0 mm 3 m/s 723 mmHg 35%
    17:00 +34°C° 0 mm 3 m/s 724 mmHg 37%
    18:00 +33°C° 0 mm 3 m/s 724 mmHg 38%
    19:00 +31°C° 0 mm 3 m/s 724 mmHg 41%
    20:00 +29°C° 0 mm 2 m/s 724 mmHg 44%
    21:00 +28°C° 0 mm 2 m/s 725 mmHg 47%
    22:00 +27°C° 0 mm 2 m/s 725 mmHg 48%
    23:00 +27°C° 0 mm 2 m/s 724 mmHg 48%

    17 Agosto, Sexta-feira

    Tempo Temperatura Precipitação Vento Pressão Humidade
    00:00 +26°C° 0 mm 2 m/s 724 mmHg 49%
    01:00 +26°C° 0 mm 1 m/s 724 mmHg 50%
    02:00 +25°C° 0 mm 1 m/s 724 mmHg 51%
    03:00 +25°C° 0 mm 1 m/s 724 mmHg 51%
    04:00 +25°C° 0 mm 1 m/s 724 mmHg 51%
    05:00 +25°C° 0 mm 2 m/s 724 mmHg 50%
    06:00 +25°C° 0 mm 2 m/s 724 mmHg 49%
    07:00 +27°C° 0 mm 2 m/s 723 mmHg 45%
    08:00 +29°C° 0 mm 2 m/s 723 mmHg 41%
    09:00 +31°C° 0 mm 2 m/s 723 mmHg 36%
    10:00 +32°C° 0 mm 2 m/s 723 mmHg 34%
    11:00 +34°C° 0 mm 2 m/s 722 mmHg 33%
    12:00 +35°C° 0 mm 2 m/s 722 mmHg 31%
    13:00 +36°C° 0 mm 2 m/s 721 mmHg 30%
    14:00 +36°C° 0 mm 3 m/s 721 mmHg 29%
    15:00 +37°C° 0 mm 3 m/s 721 mmHg 29%
    16:00 +36°C° 0 mm 3 m/s 721 mmHg 30%
    17:00 +36°C° 0 mm 3 m/s 721 mmHg 32%
    18:00 +35°C° 0 mm 3 m/s 721 mmHg 34%
    19:00 +34°C° 0 mm 2 m/s 721 mmHg 36%
    20:00 +31°C° 0 mm 2 m/s 721 mmHg 39%
    21:00 +30°C° 0 mm 2 m/s 722 mmHg 41%
    22:00 +29°C° 0 mm 2 m/s 722 mmHg 43%
    23:00 +28°C° 0 mm 2 m/s 721 mmHg 44%

    18 Agosto, Sábado

    Tempo Temperatura Precipitação Vento Pressão Humidade
    00:00 +28°C° 0 mm 2 m/s 721 mmHg 46%
    01:00 +27°C° 0 mm 2 m/s 721 mmHg 47%
    02:00 +26°C° 0 mm 1 m/s 721 mmHg 49%
    03:00 +26°C° 0 mm 1 m/s 721 mmHg 50%
    04:00 +26°C° 0 mm 1 m/s 721 mmHg 50%
    05:00 +26°C° 0 mm 1 m/s 721 mmHg 50%
    06:00 +26°C° 0 mm 2 m/s 721 mmHg 49%
    07:00 +28°C° 0 mm 2 m/s 721 mmHg 45%
    08:00 +29°C° 0 mm 2 m/s 721 mmHg 41%
    09:00 +31°C° 0 mm 3 m/s 721 mmHg 37%
    10:00 +32°C° 0 mm 2 m/s 720 mmHg 35%
    11:00 +34°C° 0 mm 2 m/s 720 mmHg 33%
    12:00 +35°C° 0 mm 2 m/s 720 mmHg 31%
    13:00 +35°C° 0,1 mm 2 m/s 719 mmHg 31%
    14:00 +36°C° 0,1 mm 2 m/s 719 mmHg 30%
    15:00 +36°C° 0,1 mm 3 m/s 719 mmHg 30%
    16:00 +36°C° 0,2 mm 2 m/s 719 mmHg 32%
    17:00 +35°C° 0,2 mm 2 m/s 719 mmHg 34%
    18:00 +34°C° 0,2 mm 2 m/s 719 mmHg 36%
    19:00 +32°C° 0,1 mm 2 m/s 720 mmHg 38%
    20:00 +30°C° 0,1 mm 2 m/s 721 mmHg 40%
    21:00 +29°C° 0,1 mm 2 m/s 721 mmHg 43%
    22:00 +28°C° 0 mm 2 m/s 721 mmHg 44%
    23:00 +28°C° 0 mm 2 m/s 721 mmHg 46%

    19 Agosto, Domingo

    Tempo Temperatura Precipitação Vento Pressão Humidade
    00:00 +27°C° 0 mm 2 m/s 722 mmHg 48%
    01:00 +27°C° 0 mm 2 m/s 722 mmHg 49%
    02:00 +26°C° 0 mm 2 m/s 722 mmHg 51%
    03:00 +26°C° 0 mm 1 m/s 722 mmHg 52%
    04:00 +26°C° 0 mm 1 m/s 722 mmHg 53%
    05:00 +26°C° 0 mm 1 m/s 722 mmHg 54%
    06:00 +25°C° 0 mm 1 m/s 722 mmHg 55%
    07:00 +27°C° 0 mm 2 m/s 722 mmHg 51%
    08:00 +28°C° 0 mm 2 m/s 722 mmHg 47%
    09:00 +30°C° 0 mm 2 m/s 722 mmHg 43%
    10:00 +31°C° 0,1 mm 3 m/s 722 mmHg 42%
    11:00 +33°C° 0,1 mm 4 m/s 721 mmHg 40%
    12:00 +34°C° 0,1 mm 5 m/s 721 mmHg 39%
    13:00 +34°C° 0,1 mm 5 m/s 721 mmHg 37%
    14:00 +35°C° 0,1 mm 6 m/s 721 mmHg 35%
    15:00 +36°C° 0,1 mm 6 m/s 721 mmHg 33%
    16:00 +35°C° 0,2 mm 6 m/s 721 mmHg 34%
    17:00 +34°C° 0,2 mm 7 m/s 721 mmHg 34%
    18:00 +33°C° 0,2 mm 7 m/s 721 mmHg 35%
    19:00 +30°C° 0 mm 7 m/s 722 mmHg 39%
    20:00 +28°C° 0 mm 7 m/s 722 mmHg 44%
    21:00 +27°C° 0 mm 7 m/s 723 mmHg 48%
    22:00 +26°C° 0 mm 6 m/s 723 mmHg 50%
    23:00 +26°C° 0 mm 6 m/s 723 mmHg 53%
    Mostrar mais